Home > Time Zones > World Clock > Weather > Yemen > Aden > Past weeks

Flag for Yemen Weather past 2 weeks in Aden, Yemen

Now
88 °F

Passing clouds.


Feels Like: 100 °F
Forecast: 85 / 94 °F
Wind: 5 mph from Southeast

Location: Aden

Current Time: Sep 3, 2014 at 3:32:33 AM

Latest Report: Sep 3, 2014 at 3:00 AM


Visibility: 4 mi

Pressure: 29.53 "Hg

Humidity: 70%

Dew point: 77 °F

Location of AdenLocation

Historic Weather in Aden — Graph

°F

Aden temperature yesterday

Maximum temperature yesterday: 99 °F (at 2:00 PM)
Minimum temperature yesterday: 88 °F (at 5:00 AM)
Average temperature yesterday: 92 °F

Past Weeks' High & Low Weather Summary

 TemperatureHumidityPressure
High100 °F (Aug 23, 4:00 PM)94% (Aug 19, 5:00 AM)29.80 "Hg (Aug 19, 5:00 AM)
Low84 °F (Aug 30, 6:00 PM)22% (Aug 23, 4:00 PM)29.45 "Hg (Sep 2, 4:00 PM)
Average90 °F52%29.63 "Hg
* Reported Aug 19 2:00 AM — Sep 3 2:00 AM, Aden, Weather by CustomWeather, © 2014

Note: Actual official high and low records may vary slightly from our data, if they occured in-between our weather recording intervals... More about our weather records

Advertising

Aden weather history for previous 24 hours

 ConditionsComfort  
Time TempWeatherWind HumidityBarometerVisibility
2:00 AM
Sep 3
88 °FPassing clouds.No wind66%29.53 "Hg4 mi
1:00 AM88 °FClear.5 mph66%29.53 "Hg4 mi
12:00 AM90 °FClear.8 mph63%29.53 "Hg4 mi
11:00 PM
Sep 2
90 °FClear.7 mph63%29.56 "Hg4 mi
10:00 PM90 °FDuststorm.8 mph59%29.56 "Hg3 mi
9:00 PM90 °FClear.8 mph59%29.53 "Hg3 mi
8:00 PM93 °FDuststorm.7 mph47%29.53 "Hg2 mi
7:00 PM97 °FPassing clouds.3 mph25%29.47 "Hg2 mi
6:00 PM93 °FPartly sunny.22 mph41%29.47 "Hg4 mi
5:00 PM95 °FPartly sunny.28 mph32%29.45 "Hg4 mi
4:00 PM97 °FPassing clouds.25 mph32%29.45 "Hg4 mi
3:00 PM99 °FPassing clouds.23 mph29%29.47 "Hg4 mi
2:00 PM99 °FPassing clouds.20 mph31%29.50 "Hg4 mi
1:00 PM97 °FSandstorm.21 mph42%29.53 "Hg3 mi
12:00 PM97 °FPassing clouds.17 mph42%29.56 "Hg4 mi
11:00 AM95 °FPassing clouds.6 mph47%29.59 "Hg5 mi
10:00 AM93 °FPassing clouds.6 mph49%29.62 "Hg5 mi
9:00 AM91 °FPartly sunny.2 mph59%29.62 "Hg5 mi
8:00 AM90 °FPartly sunny.2 mph63%29.62 "Hg5 mi
7:00 AM90 °FScattered clouds.No wind59%29.62 "Hg5 mi
6:00 AM88 °FClear.No wind62%29.59 "Hg5 mi
5:00 AM88 °FPassing clouds.2 mph62%29.56 "Hg5 mi
4:00 AM90 °FPassing clouds.6 mph59%29.56 "Hg5 mi
3:00 AM90 °FPassing clouds.2 mph59%29.53 "Hg5 mi
Weather by CustomWeather, © 2014

See weather overviewHow to use our weather pages